GALAXY 4R

导读

**GALAXY 4R(银河4R)是美国休斯公司研发的通信卫星,属于银河卫星系列。2000年4月19日于圭亚那航天中心由阿丽亚娜4 2L运载火箭发射升空,定点于地球静止轨道(GEO),轨道高度约35900公里,倾角12.1°。卫星起飞质量3668千克,设计寿命15年,主要承担商业通信转发服务,接替原Galaxy 4卫星的业务,为区域提供稳定的广播电视与通信传输支持。**

Basic Information
目录编号:
26298
目录名称:
GALAXY 4R
国际标识:
2000-020A
轨道中心:
EARTH
卫星名称:
GALAXY 4R
卫星全名:
--
卫星状态:
在轨 (已飞行9595 天)
发射日期:
2000-04-19 UTC
国别 :
美国 (US)
星等 :
--
Orbit Information
数据来源 国际轨道数据 AOE轨道数据
星历时间 2026-07-27T19:25:37+0800
11小时前
查看轨道信息
2026-07-27T09:00:00+0800
22小时前
查看轨道信息
半长轴 42289.969km 42289.969km
偏心率 0.0005202 0.0005338
轨道倾角 12.795° 12.794°
近地点辐角 201.292° 198.238°
升交点赤经 23.744° 23.746°
平近点角 323.992° 170.909°
近地点 35889.832km 35889.257km
远地点 35933.832km 35934.407km
周期 1442.500分钟 1442.500分钟
每日圈数 0.998267 0.998267
Detailed Information
使用方式:
暂无
2D Orbit Map
3D Orbit Map
Orbit Altitude Analysis Chart
Orbit Inclination Analysis Chart
Orbit Comprehensive Analysis Chart
View Comprehensive Chart